GW0483 Weather Reports


Display with metric or nautical units.
time (UTC)temp
F
wind
direction
speed
MPH
gust
MPH
rain 1hr
in
rain 24hr
in
rain mn
in
humidity
%
barometer
mb
20260831173103 92 96 1.0 3.0 0.00 0.00 0.00 58 1015.8
20260831172603 91 137 2.0 3.0 0.00 0.00 0.00 57 1015.8
20260831172057 92 136 2.0 2.0 0.00 0.00 0.00 58 1015.8
20260831171553 92 137 3.0 3.0 0.00 0.00 0.00 57 1016.0
20260831171050 91 136 4.0 5.0 0.00 0.00 0.00 60 1016.2
20260831170546 90 111 2.0 3.0 0.00 0.00 0.00 61 1016.2
20260831170044 89 82 1.0 2.0 0.00 0.00 0.00 65 1016.3
20260831165543 91 158 2.0 2.0 0.00 0.00 0.00 61 1016.3
20260831165040 91 155 3.0 3.0 0.00 0.00 0.00 64 1016.4
20260831164536 91 118 2.0 2.0 0.00 0.00 0.00 63 1016.4
20260831164031 91 131 3.0 3.0 0.00 0.00 0.00 62 1016.2
20260831163526 91 215 2.0 2.0 0.00 0.00 0.00 61 1016.2
20260831163021 89 151 3.0 5.0 0.00 0.00 0.00 66 1016.1
20260831162520 89 52 2.0 2.0 0.00 0.00 0.00 67 1016.3
20260831162018 88 155 4.0 5.0 0.00 0.00 0.00 68 1016.3
20260831161515 88 152 4.0 5.0 0.00 0.00 0.00 69 1016.4
20260831161011 88 359 2.0 2.0 0.00 0.00 0.00 68 1016.3
20260831160510 88 116 6.0 7.0 0.00 0.00 0.00 69 1016.3
20260831160006 87 176 3.0 5.0 0.00 0.00 0.00 70 1016.3
20260831155500 87 150 3.0 3.0 0.00 0.00 0.00 72 1016.1
20260831154955 87 142 3.0 5.0 0.00 0.00 0.00 73 1016.0
20260831154452 86 69 1.0 1.0 0.00 0.00 0.00 75 1016.0
20260831153950 86 147 3.0 3.0 0.00 0.00 0.00 75 1016.0
20260831153446 85 130 3.0 3.0 0.00 0.00 0.00 76 1016.0
20260831152943 85 268 5.0 7.0 0.00 0.00 0.00 76 1015.9
20260831152437 85 146 3.0 3.0 0.00 0.00 0.00 77 1016.2
20260831151933 84 154 6.0 7.0 0.00 0.00 0.00 78 1016.0
20260831151432 83 129 2.0 2.0 0.00 0.00 0.00 81 1016.0
20260831150927 83 151 3.0 3.0 0.00 0.00 0.00 81 1015.9
20260831150423 82 106 4.0 5.0 0.00 0.00 0.00 82 1016.0
20260831145922 84 122 3.0 5.0 0.00 0.00 0.00 81 1015.9
20260831145418 83 60 1.0 1.0 0.00 0.00 0.00 83 1016.0
20260831144914 82 164 3.0 3.0 0.00 0.00 0.00 83 1015.8
20260831144409 82 2 1.0 2.0 0.00 0.00 0.00 85 1015.8
20260831143904 81 143 3.0 5.0 0.00 0.00 0.00 86 1016.1
20260831143359 81 45 1.0 2.0 0.00 0.00 0.00 88 1015.8
20260831142854 80 198 3.0 3.0 0.00 0.00 0.00 90 1015.8
20260831142349 79 36 2.0 3.0 0.00 0.00 0.00 92 1016.0
20260831141844 79 191 3.0 3.0 0.00 0.00 0.00 92 1015.8
20260831141338 79 137 3.0 3.0 0.00 0.00 0.00 92 1015.8
20260831140834 79 72 1.0 2.0 0.00 0.00 0.00 92 1015.8
20260831140328 79 190 3.0 3.0 0.00 0.00 0.00 93 1015.4
20260831135826 79 161 4.0 5.0 0.00 0.00 0.00 94 1015.3
20260831135321 78 174 4.0 6.0 0.00 0.00 0.00 94 1015.5
20260831134817 78 137 2.0 2.0 0.00 0.00 0.00 95 1015.4
20260831134314 78 94 1.0 1.0 0.00 0.00 0.00 95 1015.4
20260831133812 78 119 2.0 2.0 0.00 0.00 0.00 95 1015.3
20260831133307 77 233 3.0 5.0 0.00 0.00 0.00 96 1015.5
20260831132802 78 123 2.0 2.0 0.00 0.00 0.00 96 1015.2
20260831132257 77 60 1.0 1.0 0.00 0.00 0.00 96 1015.2
20260831131756 77 61 0.0 0.0 0.00 0.00 0.00 96 1015.3
20260831131253 77 112 2.0 2.0 0.00 0.00 0.00 97 1015.2
20260831130748 77 59 1.0 1.0 0.00 0.00 0.00 97 1015.2
20260831130243 77 111 2.0 2.0 0.00 0.00 0.00 97 1015.2
20260831125742 76 166 2.0 2.0 0.00 0.00 0.00 97 1015.5
20260831125238 76 72 0.0 1.0 0.00 0.00 0.00 97 1015.1
20260831124732 76 84 0.0 1.0 0.00 0.00 0.00 97 1015.2
20260831124229 76 60 0.0 1.0 0.00 0.00 0.00 97 1015.1
20260831123728 76 73 0.0 1.0 0.00 0.00 0.00 97 1014.9
20260831123227 76 17 0.0 1.0 0.00 0.00 0.00 97 1015.0
20260831122721 76 56 0.0 1.0 0.00 0.00 0.00 97 1015.0
20260831122218 76 75 1.0 1.0 0.00 0.00 0.00 97 1015.0
20260831121717 76 92 1.0 2.0 0.00 0.00 0.00 97 1014.6
20260831121214 76 73 1.0 1.0 0.00 0.00 0.00 97 1014.6
20260831120709 76 74 0.0 1.0 0.00 0.00 0.00 97 1014.8
20260831120203 75 67 0.0 0.0 0.00 0.00 0.00 97 1014.5
20260831115659 75 90 2.0 2.0 0.00 0.00 0.00 97 1014.6
20260831115155 75 161 0.0 1.0 0.00 0.00 0.00 97 1014.8
20260831114654 76 67 1.0 1.0 0.00 0.00 0.00 97 1014.8
20260831114148 76 73 1.0 1.0 0.00 0.00 0.00 97 1014.6
20260831113648 76 197 1.0 2.0 0.00 0.00 0.00 97 1014.6
20260831113143 76 108 1.0 2.0 0.00 0.00 0.00 97 1014.6
20260831112642 76 59 1.0 1.0 0.00 0.00 0.00 97 1014.5
20260831112138 76 111 2.0 2.0 0.00 0.00 0.00 97 1014.7
20260831111634 76 52 0.0 1.0 0.00 0.00 0.00 96 1014.6
20260831111129 76 187 2.0 2.0 0.00 0.00 0.00 96 1014.5
20260831110625 76 142 1.0 2.0 0.00 0.00 0.00 97 1014.6
20260831110120 76 71 1.0 1.0 0.00 0.00 0.00 97 1014.7
20260831105619 76 106 2.0 2.0 0.00 0.00 0.00 96 1014.6
20260831105114 76 39 2.0 3.0 0.00 0.00 0.00 96 1014.7
20260831104610 76 88 1.0 1.0 0.00 0.00 0.00 96 1014.8
20260831104106 76 209 1.0 2.0 0.00 0.00 0.00 96 1014.7
20260831103601 76 64 0.0 1.0 0.00 0.00 0.00 96 1014.7
20260831103056 76 97 2.0 2.0 0.00 0.00 0.00 96 1014.8
20260831102550 76 83 1.0 1.0 0.00 0.00 0.00 96 1014.5
20260831102046 76 214 2.0 3.0 0.00 0.00 0.00 96 1014.6
20260831101540 76 111 2.0 3.0 0.00 0.00 0.00 96 1014.8
20260831101037 77 102 1.0 1.0 0.00 0.00 0.00 96 1014.6
20260831100532 77 71 1.0 1.0 0.00 0.00 0.00 96 1014.5
20260831100028 77 231 2.0 3.0 0.00 0.00 0.00 96 1014.7
20260831095526 77 120 3.0 3.0 0.00 0.00 0.00 95 1014.9
20260831095021 77 93 2.0 2.0 0.00 0.00 0.00 95 1014.5
20260831094518 77 154 2.0 2.0 0.00 0.00 0.00 95 1014.5
20260831094013 77 125 3.0 3.0 0.00 0.00 0.00 95 1014.6
20260831093513 77 118 2.0 3.0 0.00 0.00 0.00 95 1014.4
20260831093010 77 211 2.0 3.0 0.00 0.00 0.00 95 1014.5
20260831092505 77 89 1.0 1.0 0.00 0.00 0.00 95 1014.5
20260831092001 77 166 3.0 3.0 0.00 0.00 0.00 94 1014.6
20260831091455 77 105 2.0 2.0 0.00 0.00 0.00 94 1014.5
20260831090950 77 126 3.0 3.0 0.00 0.00 0.00 94 1014.7
20260831090447 77 136 3.0 3.0 0.00 0.00 0.00 94 1014.6
20260831085942 77 134 3.0 3.0 0.00 0.00 0.00 94 1014.5
20260831085438 77 105 3.0 3.0 0.00 0.00 0.00 94 1014.7
20260831084937 77 114 2.0 2.0 0.00 0.00 0.00 94 1014.6
20260831084433 77 164 3.0 5.0 0.00 0.00 0.00 94 1014.8
20260831083930 77 108 3.0 3.0 0.00 0.00 0.00 94 1014.6
20260831083424 77 93 1.0 2.0 0.00 0.00 0.00 94 1014.8
20260831082923 77 138 3.0 6.0 0.00 0.00 0.00 94 1014.8
20260831082418 77 176 3.0 3.0 0.00 0.00 0.00 94 1014.8
20260831081913 77 95 2.0 3.0 0.00 0.00 0.00 94 1014.8
20260831081409 77 129 3.0 3.0 0.00 0.00 0.00 94 1015.0
20260831080904 77 107 2.0 2.0 0.00 0.00 0.00 94 1014.9
20260831080400 77 265 3.0 3.0 0.00 0.00 0.00 94 1014.8
20260831075855 77 84 2.0 2.0 0.00 0.00 0.00 93 1014.9
20260831075350 77 194 1.0 1.0 0.00 0.00 0.00 93 1014.9
20260831074845 77 117 1.0 1.0 0.00 0.00 0.00 93 1015.0
20260831074344 77 65 1.0 2.0 0.00 0.00 0.00 93 1014.8
20260831073840 77 113 1.0 2.0 0.00 0.00 0.00 92 1014.8
20260831073339 77 73 1.0 1.0 0.00 0.00 0.00 92 1014.6
20260831072834 77 129 1.0 1.0 0.00 0.00 0.00 92 1014.6
20260831072330 77 93 1.0 2.0 0.00 0.00 0.00 91 1014.7
20260831071826 77 45 1.0 2.0 0.00 0.00 0.00 91 1014.8
20260831071325 77 173 2.0 2.0 0.00 0.00 0.00 91 1014.9
20260831070820 77 134 2.0 2.0 0.00 0.00 0.00 90 1014.6
20260831070319 77 94 1.0 1.0 0.00 0.00 0.00 90 1014.8
20260831065818 77 135 1.0 2.0 0.00 0.00 0.00 89 1014.9
20260831065316 77 118 2.0 2.0 0.00 0.00 0.00 89 1014.7
20260831064812 77 121 4.0 5.0 0.00 0.00 0.00 89 1014.8
20260831064307 78 103 1.0 2.0 0.00 0.00 0.00 88 1014.9
20260831063803 78 75 1.0 2.0 0.00 0.00 0.00 88 1015.1
20260831063257 78 83 3.0 3.0 0.00 0.00 0.00 87 1015.0
20260831062752 78 132 3.0 5.0 0.00 0.00 0.00 86 1015.1
20260831062247 78 151 2.0 3.0 0.00 0.00 0.00 86 1014.9
20260831061745 78 56 1.0 2.0 0.00 0.00 0.00 85 1014.6
20260831061240 78 140 4.0 5.0 0.00 0.00 0.00 85 1014.9
20260831060737 78 91 3.0 3.0 0.00 0.00 0.00 84 1014.9
20260831060236 78 73 2.0 3.0 0.00 0.00 0.00 84 1015.1
20260831055735 79 176 3.0 3.0 0.00 0.00 0.00 83 1015.0
20260831055235 79 94 2.0 2.0 0.00 0.00 0.00 82 1014.9
20260831054730 79 229 4.0 6.0 0.00 0.00 0.00 82 1014.7
20260831054221 79 156 3.0 5.0 0.00 0.00 0.00 81 1014.8
20260831053719 79 137 4.0 5.0 0.00 0.00 0.00 80 1014.7
20260831053218 80 58 3.0 5.0 0.00 0.00 0.00 80 1014.9
20260831052718 80 130 2.0 3.0 0.00 0.00 0.00 79 1014.5
20260831052217 80 127 3.0 3.0 0.00 0.00 0.00 78 1014.6
20260831051715 80 92 3.0 5.0 0.00 0.00 0.00 78 1014.8
20260831051214 80 148 3.0 3.0 0.00 0.00 0.00 77 1014.8
20260831050709 80 123 3.0 3.0 0.00 0.00 0.00 77 1014.7
20260831050208 81 126 3.0 3.0 0.00 0.00 0.00 76 1014.5
20260831045703 81 139 3.0 3.0 0.00 0.00 0.00 76 1014.6
20260831045157 81 135 3.0 3.0 0.00 0.00 0.00 75 1014.6
20260831044652 81 109 2.0 2.0 0.00 0.00 0.00 75 1014.5
20260831044147 81 152 3.0 3.0 0.00 0.00 0.00 74 1014.4
20260831043643 82 144 3.0 5.0 0.00 0.00 0.00 74 1014.3
20260831043138 82 139 3.0 5.0 0.00 0.00 0.00 73 1014.4
20260831042637 82 135 3.0 3.0 0.00 0.00 0.00 73 1014.6
20260831042132 82 141 3.0 3.0 0.00 0.00 0.00 72 1014.5
20260831041632 82 123 2.0 2.0 0.00 0.00 0.00 72 1014.2
20260831041127 82 147 2.0 2.0 0.00 0.00 0.00 71 1014.2
20260831040622 82 160 2.0 2.0 0.00 0.00 0.00 71 1014.3
20260831040121 83 118 2.0 3.0 0.00 0.00 0.00 71 1014.1
20260831035619 83 123 2.0 2.0 0.00 0.00 0.00 70 1014.4
20260831035114 83 91 3.0 3.0 0.00 0.00 0.00 70 1014.1
20260831034614 83 82 2.0 2.0 0.00 0.00 0.00 70 1014.1
20260831034109 83 152 2.0 2.0 0.00 0.00 0.00 69 1014.2
20260831033604 84 127 3.0 3.0 0.00 0.00 0.00 69 1014.2
20260831033059 84 93 4.0 5.0 0.00 0.00 0.00 69 1013.9
20260831032559 84 60 1.0 2.0 0.00 0.00 0.00 68 1013.9
20260831032055 84 144 2.0 2.0 0.00 0.00 0.00 68 1014.0
20260831031554 84 87 3.0 3.0 0.00 0.00 0.00 68 1014.1
20260831031054 84 113 3.0 3.0 0.00 0.00 0.00 67 1013.9
20260831030553 85 194 4.0 5.0 0.00 0.00 0.00 67 1013.7
20260831030052 85 147 4.0 6.0 0.00 0.00 0.00 67 1013.8
20260831025550 85 166 4.0 6.0 0.00 0.00 0.00 67 1013.6
20260831025046 85 155 4.0 5.0 0.00 0.00 0.00 67 1013.7
20260831024542 85 100 2.0 2.0 0.00 0.00 0.00 67 1013.4
20260831024040 85 148 2.0 2.0 0.00 0.00 0.00 67 1013.3
20260831023539 86 159 3.0 5.0 0.00 0.00 0.00 66 1013.0
20260831023033 86 142 2.0 3.0 0.00 0.00 0.00 66 1013.2
20260831022533 86 81 2.0 3.0 0.00 0.00 0.00 66 1013.1
20260831022028 86 101 2.0 2.0 0.00 0.00 0.00 65 1013.0
20260831021527 86 151 4.0 5.0 0.00 0.00 0.00 65 1012.6
20260831021023 86 133 4.0 5.0 0.00 0.00 0.00 66 1012.5
20260831020519 86 101 3.0 3.0 0.00 0.00 0.00 65 1012.8
20260831020013 87 119 2.0 2.0 0.00 0.00 0.00 65 1012.4
20260831015509 87 97 2.0 3.0 0.00 0.00 0.00 65 1012.4
20260831015004 87 151 3.0 3.0 0.00 0.00 0.00 65 1012.3
20260831014458 87 134 3.0 3.0 0.00 0.00 0.00 64 1012.3
20260831013953 87 112 4.0 6.0 0.00 0.00 0.00 64 1012.3
20260831013450 87 114 2.0 2.0 0.00 0.00 0.00 63 1012.3
20260831012943 87 164 3.0 5.0 0.00 0.00 0.00 63 1012.1
20260831012438 88 157 3.0 3.0 0.00 0.00 0.00 62 1012.2
20260831011933 88 138 4.0 6.0 0.00 0.00 0.00 62 1012.4
20260831011427 89 137 3.0 3.0 0.00 0.00 0.00 61 1012.2
20260831010923 89 137 3.0 3.0 0.00 0.00 0.00 60 1012.1
20260831010418 90 82 7.0 10.0 0.00 0.00 0.00 58 1012.0
20260831005913 90 112 2.0 3.0 0.00 0.00 0.00 54 1012.2
20260831005409 91 98 2.0 2.0 0.00 0.00 0.00 53 1011.9
20260831004903 91 125 1.0 2.0 0.00 0.00 0.00 53 1011.8
20260831004400 91 134 3.0 3.0 0.00 0.00 0.00 53 1011.8
20260831003855 91 71 1.0 1.0 0.00 0.00 0.00 53 1011.7
20260831003351 92 104 1.0 1.0 0.00 0.00 0.00 52 1011.8
20260831002850 92 111 1.0 1.0 0.00 0.00 0.00 51 1011.9
20260831002350 92 104 1.0 1.0 0.00 0.00 0.00 52 1011.7
20260831001846 92 114 3.0 3.0 0.00 0.00 0.00 51 1011.6
20260831001345 93 105 2.0 2.0 0.00 0.00 0.00 51 1011.7
20260831000843 93 68 1.0 1.0 0.00 0.00 0.00 50 1011.5
20260831000340 94 138 2.0 2.0 0.00 0.00 0.00 49 1011.6
20260830235836 94 144 3.0 5.0 0.00 0.00 0.00 49 1011.6
20260830235331 95 109 1.0 2.0 0.00 0.00 0.00 48 1011.6
20260830234827 94 80 1.0 1.0 0.00 0.00 0.00 48 1011.6
20260830234322 95 119 2.0 2.0 0.00 0.00 0.00 47 1011.5
20260830233818 94 137 0.0 1.0 0.00 0.00 0.00 48 1011.6
20260830233313 92 207 2.0 3.0 0.00 0.00 0.00 49 1011.6
20260830232809 92 65 2.0 3.0 0.00 0.00 0.00 50 1011.7
20260830232306 93 50 2.0 2.0 0.00 0.00 0.00 50 1011.7
20260830231801 93 178 2.0 3.0 0.00 0.00 0.00 50 1011.7
20260830231301 92 114 3.0 3.0 0.00 0.00 0.00 50 1011.6
20260830230755 93 104 2.0 2.0 0.00 0.00 0.00 50 1011.8
20260830230251 95 109 2.0 2.0 0.00 0.00 0.00 49 1011.7
20260830225750 95 15 2.0 3.0 0.00 0.00 0.00 47 1011.9
20260830225245 96 98 1.0 1.0 0.00 0.00 0.00 46 1011.9
20260830224744 96 159 3.0 3.0 0.00 0.00 0.00 47 1012.1
20260830224240 96 100 3.0 5.0 0.00 0.00 0.00 45 1011.6
20260830223736 96 159 2.0 3.0 0.00 0.00 0.00 46 1011.8
20260830223232 96 140 3.0 3.0 0.00 0.00 0.00 47 1011.8
20260830222726 97 139 3.0 3.0 0.00 0.00 0.00 46 1011.8
20260830222221 95 162 1.0 1.0 0.00 0.00 0.00 47 1011.9
20260830221717 96 326 2.0 3.0 0.00 0.00 0.00 45 1012.0
20260830221214 97 130 3.0 3.0 0.00 0.00 0.00 45 1011.9
20260830220709 97 156 3.0 3.0 0.00 0.00 0.00 46 1012.1
20260830220208 97 144 3.0 3.0 0.00 0.00 0.00 46 1012.1
20260830215707 97 155 3.0 3.0 0.00 0.00 0.00 46 1012.0
20260830215201 96 109 1.0 2.0 0.00 0.00 0.00 47 1012.1
20260830214657 96 108 2.0 2.0 0.00 0.00 0.00 47 1012.0
20260830214156 97 148 4.0 5.0 0.00 0.00 0.00 46 1011.9
20260830213656 97 143 3.0 3.0 0.00 0.00 0.00 46 1012.2
20260830213151 96 85 3.0 6.0 0.00 0.00 0.00 47 1012.3
20260830212647 97 133 2.0 2.0 0.00 0.00 0.00 46 1012.3
20260830212142 97 108 5.0 8.0 0.00 0.00 0.00 46 1012.4
20260830211637 95 110 2.0 3.0 0.00 0.00 0.00 47 1012.6
20260830211136 96 144 4.0 7.0 0.00 0.00 0.00 48 1012.6
20260830210632 97 170 3.0 3.0 0.00 0.00 0.00 47 1012.9
20260830210131 96 158 2.0 3.0 0.00 0.00 0.00 49 1012.8
20260830205628 96 68 3.0 3.0 0.00 0.00 0.00 48 1012.9
20260830205124 96 127 4.0 6.0 0.00 0.00 0.00 48 1013.0
20260830204624 95 142 3.0 3.0 0.00 0.00 0.00 48 1013.0
20260830204123 94 76 2.0 3.0 0.00 0.00 0.00 49 1013.3
20260830203619 93 157 3.0 5.0 0.00 0.00 0.00 52 1013.5
20260830203119 95 92 2.0 2.0 0.00 0.00 0.00 51 1013.6
20260830202619 93 129 2.0 2.0 0.00 0.00 0.00 52 1013.3
20260830202114 95 108 2.0 2.0 0.00 0.00 0.00 51 1013.5
20260830201614 93 159 3.0 3.0 0.00 0.00 0.00 53 1013.4
20260830201109 93 141 3.0 5.0 0.00 0.00 0.00 52 1013.7
20260830200604 95 149 4.0 6.0 0.00 0.00 0.00 51 1013.6
20260830200103 96 151 3.0 3.0 0.00 0.00 0.00 49 1013.6
20260830195559 94 131 3.0 3.0 0.00 0.00 0.00 52 1013.8
20260830195056 95 108 4.0 6.0 0.00 0.00 0.00 51 1014.0
20260830194551 95 124 4.0 5.0 0.00 0.00 0.00 51 1014.1
20260830194045 96 174 3.0 5.0 0.00 0.00 0.00 52 1014.2
20260830193544 95 163 5.0 6.0 0.00 0.00 0.00 53 1014.3
20260830193040 95 179 5.0 7.0 0.00 0.00 0.00 52 1014.4
20260830192535 94 153 5.0 6.0 0.00 0.00 0.00 54 1014.1
20260830192029 91 145 4.0 5.0 0.00 0.00 0.00 56 1014.5
20260830191525 91 145 2.0 2.0 0.00 0.00 0.00 57 1014.7
20260830191020 92 105 3.0 3.0 0.00 0.00 0.00 57 1014.6
20260830190515 95 273 5.0 7.0 0.00 0.00 0.00 55 1015.0
20260830190010 94 73 1.0 2.0 0.00 0.00 0.00 54 1014.6
20260830185504 93 167 2.0 2.0 0.00 0.00 0.00 56 1014.8
20260830184959 92 136 5.0 6.0 0.00 0.00 0.00 55 1014.8
20260830184459 93 144 4.0 6.0 0.00 0.00 0.00 56 1015.1
20260830183953 93 89 2.0 2.0 0.00 0.00 0.00 54 1015.1
20260830183448 93 88 2.0 2.0 0.00 0.00 0.00 58 1015.2
20260830182943 93 76 0.0 1.0 0.00 0.00 0.00 57 1015.3
20260830182439 92 265 3.0 3.0 0.00 0.00 0.00 59 1015.4
20260830181935 91 93 1.0 2.0 0.00 0.00 0.00 59 1015.5
20260830181430 90 119 1.0 2.0 0.00 0.00 0.00 61 1015.4
20260830180925 91 229 2.0 3.0 0.00 0.00 0.00 60 1015.7
20260830180424 93 158 6.0 8.0 0.00 0.00 0.00 57 1015.5
20260830175923 93 118 5.0 6.0 0.00 0.00 0.00 57 1015.7
20260830175423 93 116 2.0 2.0 0.00 0.00 0.00 57 1015.7
20260830174918 91 118 2.0 2.0 0.00 0.00 0.00 59 1016.1
20260830174414 91 112 1.0 2.0 0.00 0.00 0.00 60 1015.9
20260830173909 90 80 1.0 2.0 0.00 0.00 0.00 62 1016.1
20260830173405 91 301 3.0 5.0 0.00 0.00 0.00 59 1016.1